Flag for Japan Weather past 2 weeks in Nagoya, Japan

Now
79 °F

Scattered showers. Partly cloudy.


Feels Like: 82 °F
Forecast: 71 / 89 °F
Wind: 8 mph from East

Location: Nagoya Airport

Current Time: Jul 30, 2014 at 4:06:33 AM

Latest Report: Jul 30, 2014 at 3:30 AM


Visibility: N/A

Pressure: 29.98 "Hg

Humidity: 79%

Dew point: 72 °F

Location of NagoyaLocation

Historic Weather in Nagoya — Graph

°F

Nagoya temperature yesterday

Maximum temperature yesterday: 84 °F (at 12:30 PM)
Minimum temperature yesterday: 75 °F (at 12:00 AM)
Average temperature yesterday: 80 °F

Past Weeks' High & Low Weather Summary

 TemperatureHumidityPressure
High91 °F (Jul 17, 1:30 PM)100% (Jul 15, 4:00 AM)29.98 "Hg (Jul 15, 4:00 AM)
Low73 °F (Jul 15, 4:00 AM)55% (Jul 28, 4:30 PM)29.62 "Hg (Jul 23, 6:00 PM)
Average81 °F82%29.82 "Hg
* Reported Jul 15 2:00 AM — Jul 30 2:30 AM, Nagoya, Weather by CustomWeather, © 2014

Note: Actual official high and low records may vary slightly from our data, if they occured in-between our weather recording intervals... More about our weather records

Advertising

Nagoya weather history for previous 24 hours

 ConditionsComfort  
Time TempWeatherWind HumidityBarometerVisibility
2:30 AM
Jul 30
79 °FPartly cloudy.7 mph79%29.98 "HgN/A
2:00 AM79 °FPassing clouds.10 mph79%29.95 "HgN/A
1:30 AM79 °FScattered showers. Partly cloudy.14 mph79%29.98 "HgN/A
1:00 AM79 °FScattered showers. Passing clouds.10 mph79%29.98 "HgN/A
12:30 AM79 °FPassing clouds.12 mph79%29.95 "HgN/A
12:00 AM79 °FPassing clouds.13 mph79%29.95 "HgN/A
11:30 PM
Jul 29
79 °FPassing clouds.15 mph84%29.95 "HgN/A
11:00 PM79 °FPassing clouds.15 mph79%29.95 "HgN/A
10:30 PM79 °FPassing clouds.15 mph84%29.95 "HgN/A
10:00 PM81 °FPartly cloudy.15 mph79%29.95 "HgN/A
9:30 PM81 °FPassing clouds.15 mph79%29.95 "HgN/A
9:00 PM79 °FPassing clouds.13 mph84%29.98 "HgN/A
8:30 PM79 °FPassing clouds.15 mph84%29.95 "HgN/A
8:00 PM79 °FPassing clouds.15 mph84%29.95 "HgN/A
7:30 PM81 °FPassing clouds.13 mph79%29.95 "HgN/A
7:00 PM81 °FPassing clouds.12 mph79%29.92 "HgN/A
6:30 PM81 °FScattered clouds.12 mph79%29.92 "HgN/A
6:00 PM81 °FPassing clouds.14 mph79%29.92 "HgN/A
5:30 PM82 °FPassing clouds.14 mph74%29.92 "HgN/A
5:00 PM82 °FPassing clouds.12 mph74%29.92 "HgN/A
4:30 PM84 °FPassing clouds.14 mph70%29.92 "HgN/A
4:00 PM84 °FPassing clouds.14 mph66%29.92 "HgN/A
3:30 PM84 °FPassing clouds.15 mph66%29.92 "HgN/A
3:00 PM84 °FPassing clouds.16 mph74%29.92 "HgN/A
2:30 PM84 °FPassing clouds.16 mph70%29.92 "HgN/A
2:00 PM84 °FScattered clouds.18 mph74%29.92 "HgN/A
1:30 PM82 °FPassing clouds.21 mph79%29.92 "HgN/A
1:00 PM82 °FPassing clouds.18 mph79%29.92 "HgN/A
12:30 PM84 °FScattered clouds.16 mph74%29.92 "HgN/A
12:00 PM82 °FScattered clouds.15 mph79%29.92 "HgN/A
11:30 AM82 °FScattered clouds.12 mph79%29.92 "HgN/A
11:00 AM81 °FPartly sunny.12 mph79%29.92 "HgN/A
10:30 AM81 °FPartly sunny.10 mph79%29.92 "HgN/A
10:00 AM82 °FPartly sunny.9 mph74%29.95 "HgN/A
9:30 AM82 °FPartly sunny.5 mph70%29.92 "HgN/A
9:00 AM82 °FScattered clouds.5 mph70%29.92 "HgN/A
8:30 AM81 °FPartly sunny.2 mph74%29.92 "HgN/A
8:00 AM81 °FScattered clouds.3 mph74%29.92 "HgN/A
7:30 AM79 °FScattered clouds.5 mph79%29.92 "HgN/A
7:00 AM79 °FScattered clouds.7 mph79%29.92 "HgN/A
6:30 AM77 °FScattered clouds.5 mph83%29.92 "HgN/A
6:00 AM77 °FScattered clouds.3 mph83%29.89 "HgN/A
5:30 AM75 °FScattered clouds.2 mph89%29.89 "HgN/A
5:00 AM75 °FScattered clouds.No wind89%29.89 "HgN/A
4:30 AM75 °FPassing clouds.1 mph94%29.89 "HgN/A
4:00 AM75 °FPassing clouds.1 mph94%29.86 "HgN/A
Weather by CustomWeather, © 2014

See weather overviewHow to use our weather pages